TimeEST,TemperatureF,Dew PointF,Humidity,Sea Level PressureIn,VisibilityMPH,Wind Direction,Wind SpeedMPH,Gust SpeedMPH,PrecipitationIn,Events,Conditions,WindDirDegrees,DateUTC
12:51 AM,19.9,12.9,74,30.28,10.0,SSE,9.2,-,N/A,,Clear,160,2013-01-08 05:51:00
1:51 AM,19.4,12.2,74,30.20,10.0,SE,5.8,-,N/A,,Clear,140,2013-01-08 06:51:00
2:51 AM,18.0,12.9,81,30.25,10.0,SSE,5.8,-,N/A,,Clear,160,2013-01-08 07:51:00
3:51 AM,21.0,14.0,74,30.23,10.0,South,6.9,-,N/A,,Clear,190,2013-01-08 08:51:00
4:51 AM,19.0,12.9,77,30.25,10.0,South,3.5,-,N/A,,Clear,170,2013-01-08 09:51:00
5:51 AM,18.0,12.9,81,30.25,10.0,South,9.2,-,N/A,,Clear,170,2013-01-08 10:51:00
6:51 AM,21.0,15.1,78,30.26,10.0,SSE,6.9,-,N/A,,Clear,160,2013-01-08 11:51:00
7:51 AM,21.9,15.1,75,30.27,10.0,SSE,6.9,-,N/A,,Clear,150,2013-01-08 12:51:00
8:51 AM,24.1,16.0,71,30.28,10.0,SSE,11.5,-,N/A,,Clear,160,2013-01-08 13:51:00
9:51 AM,24.1,16.0,71,30.29,10.0,Calm,Calm,-,N/A,,Clear,0,2013-01-08 14:51:00
10:51 AM,24.8,15.8,69,30.21,10.0,Calm,Calm,-,N/A,,Clear,0,2013-01-08 15:51:00
11:51 AM,25.0,16.0,69,30.27,9.0,ENE,4.6,-,N/A,,Clear,70,2013-01-08 16:51:00
12:51 PM,32.0,19.0,59,30.25,10.0,Calm,Calm,-,N/A,,Clear,0,2013-01-08 17:51:00
1:51 PM,34.0,19.9,56,30.27,10.0,NE,4.6,-,N/A,,Clear,50,2013-01-08 18:51:00
2:51 PM,36.0,21.0,55,30.30,10.0,NW,6.9,-,N/A,,Clear,310,2013-01-08 19:51:00
3:51 PM,33.1,21.0,61,30.32,10.0,NW,5.8,-,N/A,,Clear,320,2013-01-08 20:51:00
4:51 PM,28.9,19.9,69,30.35,10.0,Calm,Calm,-,N/A,,Clear,0,2013-01-08 21:51:00
5:51 PM,24.1,18.0,77,30.38,10.0,SSE,4.6,-,N/A,,Clear,160,2013-01-08 22:51:00
6:51 PM,25.0,19.0,78,30.38,9.0,Calm,Calm,-,N/A,,Clear,0,2013-01-08 23:51:00
7:51 PM,21.9,18.0,85,30.40,8.0,Calm,Calm,-,N/A,,Clear,0,2013-01-09 00:51:00
8:51 PM,17.1,15.1,92,30.42,8.0,Calm,Calm,-,N/A,,Clear,0,2013-01-09 01:51:00
9:51 PM,16.0,14.0,92,30.42,6.0,Calm,Calm,-,N/A,,Clear,0,2013-01-09 02:51:00
10:51 PM,17.1,16.0,96,30.42,6.0,Calm,Calm,-,N/A,,Clear,0,2013-01-09 03:51:00
11:51 PM,16.0,16.0,100,30.43,5.0,Calm,Calm,-,N/A,,Clear,0,2013-01-09 04:51:00